Location: Trebic
(49.2170°N, 15.8830°E)
Time: 01:11:25
(UTC+02:00)

Transit 2A Rocket - Pass Details

Date: 31 July 2019
Orbit: 590 x 913 km, 66.7° (Epoch: 24 August)

Event Time Altitude Azimuth Distance (km) Brightness Sun altitude
Rises 01:57:49 0° 212° (SSW) 3,502 - -21.3°
Reaches altitude 10° 02:00:23 10° 211° (SSW) 2,541 - -21.2°
Exits shadow 02:04:13 42° 209° (SSW) 1,211 5.5 -21.0°
Maximum altitude 02:06:18 85° 124° (SE) 854 5.1 -20.9°
Drops below altitude 10° 02:11:49 10° 37° (NE) 2,372 8.6 -20.7°
Sets 02:14:09 0° 37° (NE) 3,255 9.5 -20.6°
